EST,Max TemperatureF,Mean TemperatureF,Min TemperatureF,Max Dew PointF,MeanDew PointF,Min DewpointF,Max Humidity, Mean Humidity, Min Humidity, Max Sea Level PressureIn, Mean Sea Level PressureIn, Min Sea Level PressureIn, Max VisibilityMiles, Mean VisibilityMiles, Min VisibilityMiles, Max Wind SpeedMPH, Mean Wind SpeedMPH, Max Gust SpeedMPH,PrecipitationIn, CloudCover, Events, WindDirDegrees
2014-1-1,24,18,12,13,7,2,81,65,42,30.38,30.32,30.19,10,9,2,13,4,21,0.00,6,Snow,249
2014-1-2,18,10,3,14,6,-3,88,79,70,30.33,30.12,29.85,3,2,1,16,7,26,0.17,8,Snow,19
2014-1-3,8,-3,-14,1,-5,-18,87,73,47,30.43,29.96,29.74,10,4,1,22,13,26,0.03,5,Snow,347
2014-1-4,21,2,-16,5,-6,-21,87,62,40,30.51,30.38,30.28,10,9,6,14,4,21,0.00,0,,185
2014-1-5,32,16,1,31,19,-3,100,81,48,30.34,30.15,29.87,10,6,0,8,1,,0.07,5,Fog-Rain,217
2014-1-6,55,40,23,54,41,10,100,92,55,29.85,29.49,29.31,10,4,0,24,7,48,1.19,8,Fog-Rain-Snow,217
2014-1-7,21,12,3,7,-10,-15,55,45,36,30.22,29.96,29.56,10,10,10,23,16,32,0.00,3,,268
2014-1-8,18,9,0,4,-3,-10,76,57,43,30.47,30.40,30.24,10,10,10,10,6,,0.00,1,,216
2014-1-9,27,15,3,9,5,0,88,67,39,30.65,30.56,30.43,10,10,9,13,4,16,0.00,1,,263
2014-1-10,32,19,6,30,20,2,100,89,83,30.59,30.41,30.25,10,5,1,8,1,,0.04,8,Snow,186
2014-1-11,57,44,30,55,46,30,100,96,86,30.23,29.67,29.26,10,4,0,16,5,33,0.80,8,Fog-Rain,183
2014-1-12,46,41,35,42,28,22,86,63,55,29.98,29.65,29.32,10,10,10,17,12,31,0.04,7,Rain,289
2014-1-13,45,35,25,35,28,23,92,69,51,30.11,30.02,29.88,10,10,8,15,6,24,0.00,0,,175
2014-1-14,45,41,37,43,40,36,100,94,73,29.86,29.71,29.65,10,4,0,13,5,,0.56,7,Fog-Rain,246
2014-1-15,45,36,26,34,29,25,100,90,60,30.00,29.91,29.80,10,5,0,9,2,,0.00,2,Fog,191
2014-1-16,37,34,30,33,31,30,100,92,82,29.93,29.89,29.85,10,6,2,6,1,,0.01,8,,333
2014-1-17,39,34,28,32,28,22,100,85,50,29.97,29.92,29.89,10,6,0,14,3,,0.00,4,Fog,192
2014-1-18,34,30,26,31,30,25,96,93,87,29.90,29.70,29.62,7,2,1,10,3,,0.21,8,Snow,333
2014-1-19,30,28,25,25,21,18,96,81,64,29.74,29.64,29.53,10,6,0,16,5,23,0.02,7,Fog-Snow,210
2014-1-20,39,29,17,29,21,2,88,67,50,29.89,29.62,29.50,10,8,0,18,11,30,0.00,6,Fog-Snow,249
2014-1-21,16,11,6,2,-3,-9,77,57,40,30.06,29.98,29.90,10,8,2,14,9,20,0.00,6,Snow,346
2014-1-22,12,5,-2,-6,-10,-14,61,52,41,29.94,29.84,29.73,10,10,9,18,13,29,0.00,0,,339
2014-1-23,16,6,-5,-2,-7,-11,83,59,34,30.17,30.06,29.96,10,10,2,13,4,21,0.00,2,,286
2014-1-24,14,8,3,-1,-7,-11,70,51,35,30.28,30.18,30.02,10,10,10,14,8,24,0.00,0,,270
2014-1-25,28,20,12,22,14,-3,89,72,47,29.97,29.52,29.34,10,5,0,22,13,29,0.03,6,Fog-Snow,201
2014-1-26,19,14,9,13,-1,-9,84,52,37,29.85,29.71,29.36,10,10,7,16,10,26,0.00,4,,240
2014-1-27,36,26,14,28,12,-6,82,63,34,30.02,29.73,29.54,10,9,5,21,8,31,0.04,5,Rain-Snow,246
2014-1-28,15,10,6,1,-8,-16,67,44,32,30.31,30.23,30.04,10,10,10,14,7,21,0.00,0,,257
2014-1-29,21,14,3,3,-5,-12,73,47,25,30.23,30.11,29.98,10,10,10,12,3,21,0.00,2,,256
2014-1-30,24,12,0,3,-1,-7,84,62,35,30.44,30.32,30.16,10,10,8,13,4,,0.00,0,,178
2014-1-31,37,28,19,20,15,8,82,63,37,30.20,30.09,30.03,10,10,10,15,7,21,0.00,3,,202